Location: Newark
(43.6583°N, 1.6617°E)
Time: 05:38:13
(UTC+00:00)

Courier 1B - Pass Details

Date: 31 August 2019
Orbit: 962 x 1209 km, 28.3° (Epoch: 21 September)

Event Time Altitude Azimuth Distance (km) Brightness Sun altitude
Rises 14:53:08 0° 236° (SW) 4,025 11.7 37.6°
Reaches altitude 10° 14:56:41 10° 222° (SW) 3,026 11.2 37.0°
Maximum altitude 15:02:08 22° 174° (S) 2,190 9.8 36.2°
Drops below altitude 10° 15:07:22 10° 127° (SE) 2,891 9.8 35.3°
Sets 15:10:39 0° 112° (ESE) 3,801 10.2 34.8°
